| time (UTC) | temp F | wind direction | speed MPH | gust MPH | rain 1hr in | rain 24hr in | rain mn in | humidity % | barometer mb |
| 20260509224010 | 66 | 193 | 3.0 | 10.0 | 0.00 | 0.16 | 0.13 | 55 | 1006.1 |
| 20260509223515 | 66 | 284 | 4.0 | 11.0 | 0.00 | 0.16 | 0.13 | 55 | 1006.1 |
| 20260509223026 | 66 | 132 | 3.0 | 11.0 | 0.00 | 0.16 | 0.13 | 56 | 1006.2 |
| 20260509222509 | 66 | 214 | 3.0 | 11.0 | 0.00 | 0.16 | 0.13 | 56 | 1006.0 |
| 20260509222009 | 66 | 291 | 3.0 | 11.0 | 0.00 | 0.16 | 0.13 | 55 | 1006.1 |
| 20260509221510 | 66 | 277 | 3.0 | 8.0 | 0.00 | 0.16 | 0.13 | 55 | 1006.3 |
| 20260509221006 | 66 | 140 | 2.0 | 7.0 | 0.00 | 0.16 | 0.13 | 55 | 1006.4 |
| 20260509220510 | 67 | 148 | 3.0 | 10.0 | 0.00 | 0.16 | 0.13 | 55 | 1006.5 |
| 20260509220015 | 67 | 280 | 3.0 | 8.0 | 0.00 | 0.16 | 0.13 | 55 | 1006.6 |
| 20260509215512 | 67 | 252 | 3.0 | 8.0 | 0.00 | 0.16 | 0.13 | 55 | 1006.7 |
| 20260509215006 | 67 | 255 | 1.0 | 11.0 | 0.00 | 0.16 | 0.13 | 56 | 1006.7 |
| 20260509214523 | 66 | 282 | 3.0 | 11.0 | 0.00 | 0.16 | 0.13 | 56 | 1006.6 |
| 20260509214006 | 66 | 251 | 2.0 | 8.0 | 0.00 | 0.16 | 0.13 | 57 | 1006.5 |
| 20260509213509 | 66 | 277 | 3.0 | 8.0 | 0.00 | 0.16 | 0.13 | 56 | 1006.6 |
| 20260509213025 | 66 | 223 | 1.0 | 7.0 | 0.00 | 0.16 | 0.13 | 57 | 1006.6 |
| 20260509212509 | 66 | 347 | 2.0 | 8.0 | 0.00 | 0.16 | 0.13 | 57 | 1006.7 |
| 20260509212011 | 67 | 191 | 3.0 | 8.0 | 0.00 | 0.16 | 0.13 | 56 | 1006.8 |
| 20260509211527 | 67 | 273 | 2.0 | 8.0 | 0.00 | 0.16 | 0.13 | 55 | 1006.8 |
| 20260509211011 | 67 | 215 | 2.0 | 8.0 | 0.00 | 0.16 | 0.13 | 56 | 1006.8 |
| 20260509210504 | 67 | 356 | 2.0 | 5.0 | 0.00 | 0.16 | 0.13 | 57 | 1006.7 |
| 20260509210012 | 67 | 213 | 2.0 | 7.0 | 0.00 | 0.16 | 0.13 | 57 | 1006.8 |
| 20260509205506 | 67 | 27 | 3.0 | 7.0 | 0.00 | 0.16 | 0.13 | 57 | 1006.8 |
| 20260509205008 | 67 | 258 | 3.0 | 7.0 | 0.00 | 0.16 | 0.13 | 57 | 1007.0 |
| 20260509204517 | 67 | 267 | 2.0 | 7.0 | 0.00 | 0.16 | 0.13 | 59 | 1007.1 |
| 20260509204009 | 66 | 299 | 2.0 | 7.0 | 0.00 | 0.16 | 0.13 | 60 | 1007.2 |
| 20260509203509 | 66 | 223 | 3.0 | 10.0 | 0.00 | 0.16 | 0.13 | 59 | 1007.2 |
| 20260509203026 | 66 | 191 | 2.0 | 10.0 | 0.00 | 0.16 | 0.13 | 58 | 1007.0 |
| 20260509202507 | 65 | 245 | 2.0 | 10.0 | 0.00 | 0.16 | 0.13 | 61 | 1007.2 |
| 20260509202013 | 65 | 308 | 2.0 | 10.0 | 0.00 | 0.16 | 0.13 | 61 | 1007.3 |
| 20260509201528 | 64 | 1 | 2.0 | 10.0 | 0.00 | 0.16 | 0.13 | 62 | 1007.3 |
| 20260509201011 | 65 | 245 | 2.0 | 10.0 | 0.00 | 0.16 | 0.13 | 61 | 1007.3 |
| 20260509200510 | 64 | 305 | 3.0 | 10.0 | 0.00 | 0.16 | 0.13 | 63 | 1007.4 |
| 20260509200026 | 64 | 221 | 2.0 | 10.0 | 0.00 | 0.16 | 0.13 | 63 | 1007.5 |
| 20260509195513 | 64 | 311 | 3.0 | 11.0 | 0.00 | 0.16 | 0.13 | 61 | 1007.5 |
| 20260509195006 | 64 | 162 | 2.0 | 11.0 | 0.00 | 0.16 | 0.13 | 62 | 1007.6 |
| 20260509194514 | 64 | 118 | 1.0 | 7.0 | 0.00 | 0.16 | 0.13 | 64 | 1007.6 |
| 20260509194008 | 64 | 246 | 2.0 | 9.0 | 0.00 | 0.16 | 0.13 | 63 | 1007.7 |
| 20260509193508 | 64 | 272 | 2.0 | 9.0 | 0.00 | 0.16 | 0.13 | 64 | 1007.7 |
| 20260509193024 | 64 | 280 | 1.0 | 7.0 | 0.00 | 0.16 | 0.13 | 65 | 1007.8 |
| 20260509192508 | 64 | 184 | 3.0 | 12.0 | 0.00 | 0.16 | 0.13 | 65 | 1007.7 |
| 20260509192007 | 64 | 264 | 4.0 | 15.0 | 0.00 | 0.16 | 0.13 | 63 | 1007.8 |
| 20260509191506 | 64 | 218 | 5.0 | 15.0 | 0.00 | 0.16 | 0.13 | 65 | 1007.9 |
| 20260509191004 | 63 | 229 | 2.0 | 9.0 | 0.00 | 0.16 | 0.13 | 65 | 1008.0 |
| 20260509190505 | 63 | 354 | 3.0 | 9.0 | 0.00 | 0.16 | 0.13 | 65 | 1008.0 |
| 20260509190009 | 63 | 224 | 4.0 | 9.0 | 0.00 | 0.16 | 0.13 | 65 | 1008.1 |
| 20260509185504 | 64 | 282 | 4.0 | 15.0 | 0.00 | 0.16 | 0.13 | 64 | 1008.1 |
| 20260509185005 | 64 | 308 | 3.0 | 15.0 | 0.00 | 0.16 | 0.13 | 66 | 1008.2 |
| 20260509184515 | 63 | 282 | 3.0 | 6.0 | 0.00 | 0.16 | 0.13 | 68 | 1008.3 |
| 20260509184004 | 62 | 300 | 3.0 | 6.0 | 0.00 | 0.16 | 0.13 | 66 | 1008.3 |
| 20260509183504 | 63 | 310 | 2.0 | 11.0 | 0.00 | 0.16 | 0.13 | 67 | 1008.3 |
| 20260509183006 | 63 | 141 | 2.0 | 11.0 | 0.00 | 0.16 | 0.13 | 69 | 1008.3 |
| 20260509182504 | 63 | 281 | 1.0 | 8.0 | 0.00 | 0.16 | 0.13 | 70 | 1008.4 |
| 20260509182003 | 62 | 315 | 4.0 | 8.0 | 0.00 | 0.16 | 0.13 | 70 | 1008.5 |
| 20260509181504 | 63 | 297 | 2.0 | 8.0 | 0.00 | 0.16 | 0.13 | 68 | 1008.5 |
| 20260509181007 | 63 | 282 | 3.0 | 8.0 | 0.00 | 0.16 | 0.13 | 70 | 1008.6 |
| 20260509180507 | 61 | 268 | 1.0 | 4.0 | 0.00 | 0.16 | 0.13 | 73 | 1008.6 |
| 20260509180007 | 61 | 218 | 2.0 | 5.0 | 0.00 | 0.16 | 0.13 | 74 | 1008.6 |
| 20260509175504 | 60 | 270 | 2.0 | 7.0 | 0.00 | 0.16 | 0.13 | 73 | 1008.6 |
| 20260509175004 | 60 | 195 | 1.0 | 7.0 | 0.00 | 0.16 | 0.13 | 75 | 1008.6 |
| 20260509174507 | 60 | 155 | 1.0 | 6.0 | 0.00 | 0.16 | 0.13 | 75 | 1008.6 |
| 20260509174004 | 60 | 280 | 1.0 | 7.0 | 0.00 | 0.16 | 0.13 | 75 | 1008.6 |
| 20260509173508 | 59 | 192 | 3.0 | 10.0 | 0.00 | 0.16 | 0.13 | 76 | 1008.6 |
| 20260509173008 | 59 | 310 | 2.0 | 10.0 | 0.00 | 0.16 | 0.13 | 74 | 1008.6 |
| 20260509172508 | 59 | 274 | 2.0 | 7.0 | 0.00 | 0.16 | 0.13 | 75 | 1008.6 |
| 20260509172004 | 59 | 284 | 2.0 | 7.0 | 0.00 | 0.16 | 0.13 | 75 | 1008.5 |
| 20260509171503 | 59 | 253 | 3.0 | 7.0 | 0.00 | 0.16 | 0.13 | 75 | 1008.4 |
| 20260509171004 | 59 | 292 | 3.0 | 6.0 | 0.00 | 0.16 | 0.13 | 76 | 1008.4 |
| 20260509170507 | 59 | 197 | 1.0 | 7.0 | 0.00 | 0.16 | 0.13 | 78 | 1008.4 |
| 20260509170006 | 59 | 185 | 2.0 | 7.0 | 0.00 | 0.16 | 0.13 | 77 | 1008.4 |
| 20260509165505 | 59 | 356 | 2.0 | 4.0 | 0.00 | 0.16 | 0.13 | 77 | 1008.3 |
| 20260509165006 | 60 | 189 | 2.0 | 5.0 | 0.00 | 0.16 | 0.13 | 77 | 1008.3 |
| 20260509164508 | 59 | 284 | 1.0 | 8.0 | 0.00 | 0.16 | 0.13 | 78 | 1008.3 |
| 20260509164006 | 60 | 295 | 1.0 | 8.0 | 0.00 | 0.16 | 0.13 | 80 | 1008.3 |
| 20260509163505 | 59 | 327 | 1.0 | 5.0 | 0.00 | 0.16 | 0.13 | 79 | 1008.2 |
| 20260509163023 | 59 | 196 | 2.0 | 13.0 | 0.00 | 0.16 | 0.13 | 81 | 1008.2 |
| 20260509162510 | 58 | 6 | 4.0 | 13.0 | 0.00 | 0.16 | 0.13 | 81 | 1008.2 |
| 20260509162003 | 58 | 212 | 3.0 | 6.0 | 0.00 | 0.16 | 0.13 | 81 | 1008.2 |
| 20260509161508 | 58 | 129 | 2.0 | 6.0 | 0.00 | 0.16 | 0.13 | 82 | 1008.2 |
| 20260509161005 | 58 | 227 | 2.0 | 5.0 | 0.00 | 0.16 | 0.13 | 83 | 1008.2 |
| 20260509160504 | 58 | 263 | 2.0 | 7.0 | 0.00 | 0.16 | 0.13 | 82 | 1008.2 |
| 20260509160005 | 58 | 220 | 3.0 | 7.0 | 0.00 | 0.16 | 0.13 | 85 | 1008.2 |
| 20260509155505 | 58 | 338 | 2.0 | 6.0 | 0.00 | 0.16 | 0.13 | 86 | 1008.2 |
| 20260509155005 | 57 | 202 | 2.0 | 5.0 | 0.00 | 0.16 | 0.13 | 89 | 1008.2 |
| 20260509154516 | 56 | 222 | 2.0 | 5.0 | 0.00 | 0.16 | 0.13 | 89 | 1008.1 |
| 20260509154007 | 56 | 228 | 1.0 | 3.0 | 0.00 | 0.16 | 0.13 | 90 | 1008.1 |
| 20260509153505 | 55 | 303 | 1.0 | 3.0 | 0.00 | 0.16 | 0.13 | 91 | 1008.1 |
| 20260509153008 | 54 | 277 | 1.0 | 3.0 | 0.00 | 0.16 | 0.13 | 90 | 1008.2 |
| 20260509152505 | 54 | 304 | 0.0 | 3.0 | 0.00 | 0.16 | 0.13 | 91 | 1008.1 |
| 20260509152006 | 53 | 228 | 0.0 | 2.0 | 0.00 | 0.16 | 0.13 | 91 | 1008.2 |
| 20260509151510 | 53 | 264 | 1.0 | 3.0 | 0.00 | 0.16 | 0.13 | 90 | 1008.4 |
| 20260509151003 | 53 | 222 | 0.0 | 4.0 | 0.00 | 0.16 | 0.13 | 90 | 1008.3 |
| 20260509150507 | 53 | 260 | 1.0 | 5.0 | 0.00 | 0.16 | 0.13 | 90 | 1008.3 |
| 20260509150009 | 53 | 205 | 2.0 | 5.0 | 0.00 | 0.16 | 0.13 | 90 | 1008.2 |
| 20260509145505 | 53 | 271 | 1.0 | 4.0 | 0.00 | 0.16 | 0.13 | 90 | 1008.3 |
| 20260509145002 | 53 | 276 | 0.0 | 4.0 | 0.00 | 0.16 | 0.13 | 90 | 1008.3 |
| 20260509144514 | 53 | 201 | 1.0 | 6.0 | 0.00 | 0.16 | 0.13 | 90 | 1008.3 |
| 20260509144004 | 53 | 272 | 1.0 | 7.0 | 0.00 | 0.16 | 0.13 | 90 | 1008.3 |
| 20260509143506 | 53 | 248 | 2.0 | 7.0 | 0.01 | 0.16 | 0.13 | 90 | 1008.3 |
| 20260509143016 | 53 | 230 | 2.0 | 4.0 | 0.01 | 0.16 | 0.13 | 90 | 1008.2 |
| 20260509142507 | 53 | 268 | 1.0 | 5.0 | 0.01 | 0.16 | 0.13 | 91 | 1008.1 |
| 20260509142008 | 53 | 267 | 2.0 | 5.0 | 0.01 | 0.16 | 0.13 | 91 | 1008.1 |
| 20260509141526 | 52 | 221 | 2.0 | 5.0 | 0.01 | 0.16 | 0.13 | 91 | 1008.1 |
| 20260509141007 | 52 | 326 | 1.0 | 6.0 | 0.01 | 0.16 | 0.13 | 91 | 1008.2 |
| 20260509140506 | 52 | 289 | 1.0 | 6.0 | 0.01 | 0.16 | 0.13 | 91 | 1008.3 |
| 20260509140011 | 52 | 262 | 1.0 | 4.0 | 0.01 | 0.16 | 0.13 | 91 | 1008.2 |
| 20260509135506 | 52 | 114 | 1.0 | 4.0 | 0.02 | 0.16 | 0.13 | 91 | 1008.2 |
| 20260509135009 | 52 | 314 | 1.0 | 3.0 | 0.03 | 0.16 | 0.13 | 91 | 1008.2 |
| 20260509134524 | 52 | 265 | 1.0 | 3.0 | 0.04 | 0.16 | 0.13 | 91 | 1008.3 |
| 20260509134003 | 52 | 318 | 1.0 | 9.0 | 0.05 | 0.16 | 0.13 | 91 | 1008.3 |
| 20260509133506 | 52 | 218 | 2.0 | 9.0 | 0.04 | 0.15 | 0.12 | 91 | 1008.3 |
| 20260509133010 | 52 | 212 | 1.0 | 3.0 | 0.05 | 0.15 | 0.12 | 91 | 1008.3 |
| 20260509132510 | 52 | 160 | 1.0 | 5.0 | 0.05 | 0.15 | 0.12 | 91 | 1008.4 |
| 20260509132010 | 51 | 177 | 2.0 | 5.0 | 0.05 | 0.15 | 0.12 | 91 | 1008.4 |
| 20260509131511 | 51 | 163 | 1.0 | 5.0 | 0.06 | 0.15 | 0.12 | 91 | 1008.5 |
| 20260509131007 | 51 | 264 | 2.0 | 5.0 | 0.06 | 0.15 | 0.12 | 91 | 1008.4 |
| 20260509130506 | 51 | 183 | 1.0 | 5.0 | 0.06 | 0.15 | 0.12 | 91 | 1008.5 |
| 20260509130012 | 51 | 189 | 2.0 | 5.0 | 0.06 | 0.15 | 0.12 | 91 | 1008.5 |
| 20260509125505 | 51 | 247 | 2.0 | 5.0 | 0.05 | 0.14 | 0.11 | 91 | 1008.4 |
| 20260509125007 | 51 | 211 | 1.0 | 8.0 | 0.05 | 0.13 | 0.10 | 91 | 1008.3 |
| 20260509124516 | 51 | 311 | 2.0 | 8.0 | 0.04 | 0.12 | 0.09 | 91 | 1008.5 |
| 20260509124007 | 51 | 245 | 2.0 | 4.0 | 0.03 | 0.11 | 0.08 | 91 | 1008.6 |
| 20260509123506 | 51 | 222 | 1.0 | 6.0 | 0.03 | 0.11 | 0.08 | 91 | 1008.6 |
| 20260509123016 | 51 | 302 | 1.0 | 6.0 | 0.02 | 0.10 | 0.07 | 91 | 1008.6 |
| 20260509122506 | 51 | 290 | 2.0 | 4.0 | 0.03 | 0.10 | 0.07 | 91 | 1008.5 |
| 20260509122007 | 51 | 256 | 2.0 | 7.0 | 0.03 | 0.10 | 0.07 | 91 | 1008.6 |
| 20260509121511 | 51 | 35 | 2.0 | 6.0 | 0.02 | 0.09 | 0.06 | 90 | 1008.6 |
| 20260509121008 | 51 | 343 | 1.0 | 4.0 | 0.03 | 0.09 | 0.06 | 90 | 1008.7 |
| 20260509120507 | 51 | 354 | 1.0 | 3.0 | 0.04 | 0.09 | 0.06 | 90 | 1008.7 |
| 20260509120021 | 51 | 44 | 1.0 | 3.0 | 0.04 | 0.09 | 0.06 | 90 | 1008.7 |
| 20260509115503 | 51 | 271 | 1.0 | 3.0 | 0.05 | 0.09 | 0.06 | 90 | 1008.7 |
| 20260509115008 | 51 | 272 | 1.0 | 3.0 | 0.04 | 0.08 | 0.05 | 90 | 1008.7 |
| 20260509114516 | 51 | 291 | 1.0 | 3.0 | 0.04 | 0.08 | 0.05 | 90 | 1008.6 |
| 20260509114008 | 51 | 274 | 1.0 | 3.0 | 0.04 | 0.08 | 0.05 | 90 | 1008.5 |
| 20260509113507 | 51 | 267 | 1.0 | 3.0 | 0.04 | 0.08 | 0.05 | 90 | 1008.5 |
| 20260509113014 | 51 | 286 | 1.0 | 4.0 | 0.04 | 0.08 | 0.05 | 90 | 1008.5 |
| 20260509112505 | 51 | 283 | 1.0 | 4.0 | 0.03 | 0.07 | 0.04 | 89 | 1008.5 |
| 20260509112013 | 51 | 249 | 1.0 | 4.0 | 0.03 | 0.07 | 0.04 | 89 | 1008.5 |
| 20260509111513 | 51 | 210 | 1.0 | 4.0 | 0.03 | 0.07 | 0.04 | 89 | 1008.4 |
| 20260509111006 | 51 | 268 | 1.0 | 4.0 | 0.02 | 0.06 | 0.03 | 88 | 1008.4 |
| 20260509110502 | 51 | 149 | 1.0 | 7.0 | 0.01 | 0.05 | 0.02 | 88 | 1008.3 |
| 20260509110013 | 51 | 309 | 2.0 | 9.0 | 0.01 | 0.05 | 0.02 | 87 | 1008.3 |
| 20260509105510 | 51 | 212 | 2.0 | 9.0 | 0.00 | 0.04 | 0.01 | 88 | 1008.2 |
| 20260509105008 | 51 | 276 | 1.0 | 4.0 | 0.00 | 0.04 | 0.01 | 88 | 1008.2 |
| 20260509104516 | 51 | 256 | 2.0 | 4.0 | 0.00 | 0.04 | 0.01 | 87 | 1008.1 |
| 20260509104009 | 51 | 295 | 2.0 | 5.0 | 0.00 | 0.04 | 0.01 | 87 | 1008.1 |
| 20260509103508 | 51 | 146 | 1.0 | 6.0 | 0.00 | 0.04 | 0.01 | 87 | 1008.0 |
| 20260509103017 | 51 | 252 | 2.0 | 6.0 | 0.00 | 0.04 | 0.01 | 87 | 1008.1 |
| 20260509102508 | 51 | 312 | 2.0 | 5.0 | 0.00 | 0.04 | 0.01 | 87 | 1008.1 |
| 20260509102007 | 51 | 272 | 2.0 | 5.0 | 0.00 | 0.04 | 0.01 | 87 | 1008.1 |
| 20260509101527 | 51 | 163 | 1.0 | 5.0 | 0.00 | 0.04 | 0.01 | 87 | 1008.1 |
| 20260509101006 | 51 | 255 | 1.0 | 6.0 | 0.00 | 0.04 | 0.01 | 87 | 1008.2 |
| 20260509100505 | 51 | 259 | 2.0 | 7.0 | 0.00 | 0.04 | 0.01 | 87 | 1008.1 |
| 20260509100009 | 51 | 272 | 1.0 | 7.0 | 0.01 | 0.04 | 0.01 | 88 | 1008.2 |
| 20260509095505 | 51 | 228 | 1.0 | 4.0 | 0.01 | 0.04 | 0.01 | 88 | 1008.2 |
| 20260509095007 | 51 | 280 | 1.0 | 4.0 | 0.01 | 0.04 | 0.01 | 88 | 1008.2 |
| 20260509094518 | 51 | 347 | 1.0 | 6.0 | 0.01 | 0.04 | 0.01 | 88 | 1008.3 |
| 20260509094008 | 51 | 114 | 1.0 | 6.0 | 0.01 | 0.04 | 0.01 | 88 | 1008.3 |
| 20260509093508 | 51 | 222 | 1.0 | 5.0 | 0.01 | 0.04 | 0.01 | 88 | 1008.5 |
| 20260509093016 | 51 | 259 | 1.0 | 5.0 | 0.01 | 0.04 | 0.01 | 89 | 1008.5 |
| 20260509092508 | 50 | 222 | 2.0 | 4.0 | 0.01 | 0.04 | 0.01 | 90 | 1008.6 |
| 20260509092007 | 50 | 274 | 1.0 | 5.0 | 0.01 | 0.04 | 0.01 | 90 | 1008.6 |
| 20260509091523 | 50 | 266 | 1.0 | 5.0 | 0.01 | 0.04 | 0.01 | 91 | 1008.7 |
| 20260509091009 | 50 | 158 | 1.0 | 5.0 | 0.01 | 0.04 | 0.01 | 91 | 1008.8 |
| 20260509090509 | 50 | 196 | 2.0 | 5.0 | 0.01 | 0.04 | 0.01 | 92 | 1008.8 |
| 20260509090019 | 49 | 154 | 0.0 | 2.0 | 0.00 | 0.03 | 0.00 | 92 | 1008.9 |
| 20260509085506 | 49 | 232 | 0.0 | 2.0 | 0.00 | 0.03 | 0.00 | 92 | 1008.9 |
| 20260509085009 | 49 | 237 | 0.0 | 2.0 | 0.00 | 0.03 | 0.00 | 92 | 1008.9 |
| 20260509084515 | 49 | 301 | 0.0 | 2.0 | 0.00 | 0.03 | 0.00 | 92 | 1008.9 |
| 20260509084009 | 49 | 301 | 0.0 | 0.0 | 0.00 | 0.03 | 0.00 | 92 | 1009.0 |
| 20260509083507 | 49 | 301 | 0.0 | 0.0 | 0.00 | 0.03 | 0.00 | 92 | 1009.0 |
| 20260509083022 | 49 | 301 | 0.0 | 1.0 | 0.00 | 0.03 | 0.00 | 92 | 1009.1 |
| 20260509082509 | 49 | 301 | 0.0 | 1.0 | 0.00 | 0.03 | 0.00 | 92 | 1009.1 |
| 20260509082009 | 49 | 330 | 0.0 | 0.0 | 0.00 | 0.03 | 0.00 | 92 | 1008.9 |
| 20260509081524 | 49 | 330 | 0.0 | 0.0 | 0.00 | 0.03 | 0.00 | 91 | 1008.9 |
| 20260509081009 | 49 | 330 | 0.0 | 0.0 | 0.00 | 0.03 | 0.00 | 91 | 1009.0 |
| 20260509080508 | 49 | 330 | 0.0 | 0.0 | 0.00 | 0.03 | 0.00 | 91 | 1009.0 |
| 20260509080020 | 49 | 330 | 0.0 | 0.0 | 0.00 | 0.03 | 0.00 | 91 | 1008.9 |
| 20260509075508 | 49 | 330 | 0.0 | 0.0 | 0.00 | 0.03 | 0.00 | 91 | 1009.0 |
| 20260509075007 | 49 | 330 | 0.0 | 0.0 | 0.00 | 0.03 | 0.00 | 91 | 1008.9 |
| 20260509074520 | 49 | 330 | 0.0 | 2.0 | 0.00 | 0.03 | 0.00 | 91 | 1008.9 |
| 20260509074011 | 49 | 330 | 0.0 | 3.0 | 0.00 | 0.03 | 0.00 | 91 | 1008.9 |
| 20260509073506 | 49 | 330 | 1.0 | 3.0 | 0.00 | 0.03 | 0.00 | 91 | 1009.0 |
| 20260509073034 | 49 | 326 | 1.0 | 3.0 | 0.00 | 0.03 | 0.00 | 91 | 1009.1 |
| 20260509072508 | 49 | 330 | 2.0 | 3.0 | 0.00 | 0.03 | 0.00 | 91 | 1009.0 |
| 20260509072009 | 49 | 329 | 2.0 | 3.0 | 0.00 | 0.03 | 0.00 | 91 | 1008.8 |
| 20260509071526 | 49 | 330 | 0.0 | 2.0 | 0.00 | 0.03 | 0.00 | 91 | 1008.7 |
| 20260509071011 | 49 | 321 | 0.0 | 2.0 | 0.00 | 0.03 | 0.00 | 91 | 1008.7 |
| 20260509070513 | 49 | 138 | 0.0 | 2.0 | 0.00 | 0.03 | 0.00 | 91 | 1008.7 |
| 20260509070034 | 49 | 138 | 0.0 | 2.0 | 0.00 | 0.03 | 0.00 | 91 | 1008.6 |
| 20260509065508 | 49 | 138 | 0.0 | 2.0 | 0.00 | 0.03 | 0.00 | 91 | 1008.6 |
| 20260509065010 | 49 | 138 | 0.0 | 2.0 | 0.00 | 0.03 | 0.00 | 91 | 1008.7 |
| 20260509064524 | 49 | 137 | 0.0 | 2.0 | 0.00 | 0.03 | 0.00 | 91 | 1008.8 |
| 20260509064012 | 49 | 136 | 1.0 | 2.0 | 0.00 | 0.03 | 0.00 | 91 | 1008.9 |
| 20260509063506 | 49 | 113 | 1.0 | 4.0 | 0.00 | 0.03 | 0.00 | 91 | 1009.0 |
| 20260509063044 | 49 | 133 | 0.0 | 5.0 | 0.00 | 0.03 | 0.00 | 91 | 1009.0 |
| 20260509062508 | 49 | 133 | 1.0 | 5.0 | 0.00 | 0.03 | 0.00 | 91 | 1009.0 |
| 20260509062009 | 49 | 156 | 3.0 | 5.0 | 0.00 | 0.03 | 0.00 | 91 | 1009.2 |
| 20260509061527 | 49 | 135 | 2.0 | 4.0 | 0.00 | 0.03 | 0.00 | 91 | 1009.3 |
| 20260509061009 | 49 | 113 | 0.0 | 3.0 | 0.00 | 0.03 | 0.00 | 91 | 1009.4 |
| 20260509060506 | 49 | 117 | 1.0 | 3.0 | 0.00 | 0.03 | 0.00 | 91 | 1009.4 |
| 20260509060035 | 49 | 93 | 1.0 | 3.0 | 0.00 | 0.03 | 0.00 | 90 | 1009.4 |
| 20260509055507 | 49 | 101 | 1.0 | 3.0 | 0.00 | 0.03 | 0.00 | 90 | 1009.4 |
| 20260509055009 | 49 | 110 | 1.0 | 3.0 | 0.00 | 0.03 | 0.00 | 90 | 1009.5 |
| 20260509054523 | 49 | 114 | 1.0 | 3.0 | 0.00 | 0.03 | 0.00 | 90 | 1009.5 |
| 20260509054010 | 49 | 105 | 1.0 | 3.0 | 0.00 | 0.03 | 0.00 | 90 | 1009.5 |
| 20260509053510 | 49 | 112 | 1.0 | 4.0 | 0.00 | 0.03 | 0.00 | 90 | 1009.6 |
| 20260509053024 | 49 | 104 | 2.0 | 4.0 | 0.00 | 0.03 | 0.00 | 90 | 1009.7 |
| 20260509052507 | 49 | 108 | 1.0 | 3.0 | 0.00 | 0.03 | 0.00 | 90 | 1009.8 |
| 20260509052007 | 49 | 88 | 1.0 | 3.0 | 0.00 | 0.03 | 0.00 | 90 | 1009.9 |
| 20260509051525 | 49 | 115 | 2.0 | 4.0 | 0.00 | 0.03 | 0.00 | 90 | 1010.0 |
| 20260509051007 | 49 | 109 | 1.0 | 5.0 | 0.00 | 0.03 | 0.00 | 90 | 1009.9 |
| 20260509050508 | 49 | 82 | 2.0 | 5.0 | 0.00 | 0.03 | 0.00 | 90 | 1009.9 |
| 20260509050021 | 49 | 115 | 2.0 | 7.0 | 0.00 | 0.03 | 0.00 | 90 | 1009.8 |
| 20260509045507 | 49 | 89 | 2.0 | 7.0 | 0.00 | 0.03 | 0.00 | 89 | 1009.9 |
| 20260509045013 | 50 | 100 | 2.0 | 6.0 | 0.00 | 0.03 | 0.00 | 89 | 1009.9 |
| 20260509044526 | 50 | 85 | 2.0 | 6.0 | 0.00 | 0.03 | 0.00 | 89 | 1009.9 |
| 20260509044012 | 50 | 96 | 2.0 | 6.0 | 0.00 | 0.03 | 0.00 | 89 | 1009.9 |
| 20260509043509 | 50 | 89 | 3.0 | 6.0 | 0.00 | 0.03 | 0.00 | 89 | 1010.1 |
| 20260509043023 | 50 | 79 | 2.0 | 6.0 | 0.00 | 0.03 | 0.00 | 89 | 1010.1 |
| 20260509042514 | 50 | 93 | 1.0 | 4.0 | 0.00 | 0.03 | 0.00 | 89 | 1010.2 |
| 20260509042012 | 50 | 90 | 2.0 | 4.0 | 0.00 | 0.03 | 0.00 | 89 | 1010.2 |
| 20260509041514 | 50 | 101 | 3.0 | 4.0 | 0.00 | 0.03 | 0.00 | 89 | 1010.3 |
| 20260509041010 | 50 | 97 | 1.0 | 4.0 | 0.00 | 0.03 | 0.00 | 89 | 1010.3 |
| 20260509040509 | 50 | 99 | 2.0 | 4.0 | 0.00 | 0.03 | 0.00 | 89 | 1010.3 |
| 20260509040019 | 50 | 119 | 2.0 | 4.0 | 0.00 | 0.03 | 0.00 | 88 | 1010.3 |
| 20260509035509 | 50 | 104 | 1.0 | 3.0 | 0.00 | 0.03 | 0.03 | 88 | 1010.5 |
| 20260509035009 | 50 | 121 | 2.0 | 4.0 | 0.00 | 0.03 | 0.03 | 88 | 1010.6 |
| 20260509034521 | 50 | 111 | 2.0 | 4.0 | 0.00 | 0.03 | 0.03 | 88 | 1010.8 |
| 20260509034012 | 50 | 116 | 2.0 | 3.0 | 0.00 | 0.03 | 0.03 | 88 | 1010.7 |
| 20260509033514 | 50 | 108 | 2.0 | 3.0 | 0.01 | 0.03 | 0.03 | 88 | 1010.9 |
| 20260509033026 | 50 | 69 | 2.0 | 3.0 | 0.01 | 0.03 | 0.03 | 88 | 1011.0 |
| 20260509032507 | 50 | 45 | 1.0 | 3.0 | 0.01 | 0.03 | 0.03 | 88 | 1011.1 |
| 20260509032016 | 50 | 112 | 1.0 | 3.0 | 0.02 | 0.03 | 0.03 | 88 | 1011.1 |
| 20260509031515 | 50 | 83 | 1.0 | 3.0 | 0.02 | 0.03 | 0.03 | 88 | 1011.1 |
| 20260509031008 | 50 | 79 | 1.0 | 3.0 | 0.02 | 0.03 | 0.03 | 88 | 1011.2 |
| 20260509030508 | 50 | 85 | 1.0 | 2.0 | 0.02 | 0.03 | 0.03 | 88 | 1011.3 |
| 20260509030017 | 51 | 107 | 1.0 | 2.0 | 0.02 | 0.03 | 0.03 | 88 | 1011.4 |
| 20260509025508 | 51 | 83 | 1.0 | 2.0 | 0.02 | 0.03 | 0.03 | 88 | 1011.4 |
| 20260509025009 | 51 | 96 | 0.0 | 0.0 | 0.02 | 0.03 | 0.03 | 87 | 1011.5 |
| 20260509024522 | 51 | 72 | 0.0 | 0.0 | 0.02 | 0.03 | 0.03 | 87 | 1011.5 |
| 20260509024010 | 51 | 72 | 0.0 | 2.0 | 0.02 | 0.03 | 0.03 | 87 | 1011.6 |
| 20260509023508 | 51 | 72 | 0.0 | 3.0 | 0.01 | 0.02 | 0.02 | 86 | 1011.6 |
| 20260509023024 | 51 | 72 | 1.0 | 3.0 | 0.01 | 0.02 | 0.02 | 86 | 1011.6 |
| 20260509022511 | 51 | 7 | 0.0 | 2.0 | 0.01 | 0.02 | 0.02 | 86 | 1011.6 |
| 20260509022011 | 51 | 55 | 0.0 | 2.0 | 0.00 | 0.01 | 0.01 | 85 | 1011.6 |
| 20260509021528 | 51 | 354 | 0.0 | 2.0 | 0.00 | 0.01 | 0.01 | 85 | 1011.6 |
| 20260509021007 | 51 | 330 | 0.0 | 2.0 | 0.00 | 0.01 | 0.01 | 84 | 1011.5 |
| 20260509020508 | 52 | 323 | 1.0 | 4.0 | 0.00 | 0.01 | 0.01 | 83 | 1011.5 |
| 20260509020032 | 52 | 121 | 2.0 | 4.0 | 0.01 | 0.01 | 0.01 | 83 | 1011.4 |
| 20260509015508 | 52 | 19 | 3.0 | 4.0 | 0.01 | 0.01 | 0.01 | 83 | 1011.4 |
| 20260509015008 | 52 | 91 | 1.0 | 2.0 | 0.01 | 0.01 | 0.01 | 82 | 1011.2 |
| 20260509014537 | 52 | 357 | 0.0 | 2.0 | 0.01 | 0.01 | 0.01 | 81 | 1011.2 |
| 20260509014008 | 52 | 119 | 0.0 | 3.0 | 0.01 | 0.01 | 0.01 | 81 | 1011.2 |
| 20260509013508 | 52 | 114 | 0.0 | 3.0 | 0.01 | 0.01 | 0.01 | 80 | 1011.1 |
| 20260509013035 | 52 | 118 | 1.0 | 4.0 | 0.01 | 0.01 | 0.01 | 80 | 1010.9 |
| 20260509012510 | 53 | 131 | 2.0 | 4.0 | 0.01 | 0.01 | 0.01 | 80 | 1010.7 |
| 20260509012009 | 53 | 101 | 2.0 | 3.0 | 0.01 | 0.01 | 0.01 | 79 | 1010.5 |
| 20260509011527 | 53 | 81 | 1.0 | 4.0 | 0.01 | 0.01 | 0.01 | 78 | 1010.4 |
| 20260509011009 | 53 | 123 | 2.0 | 4.0 | 0.01 | 0.01 | 0.01 | 77 | 1010.3 |
| 20260509010511 | 53 | 77 | 2.0 | 4.0 | 0.01 | 0.01 | 0.01 | 76 | 1010.2 |
| 20260509010028 | 54 | 89 | 3.0 | 4.0 | 0.00 | 0.00 | 0.00 | 74 | 1010.2 |
| 20260509005510 | 54 | 111 | 1.0 | 3.0 | 0.00 | 0.00 | 0.00 | 74 | 1010.0 |
| 20260509005007 | 54 | 105 | 2.0 | 3.0 | 0.00 | 0.00 | 0.00 | 72 | 1009.9 |
| 20260509004517 | 54 | 43 | 0.0 | 2.0 | 0.00 | 0.00 | 0.00 | 72 | 1010.0 |
| 20260509004006 | 54 | 78 | 0.0 | 4.0 | 0.00 | 0.00 | 0.00 | 71 | 1010.0 |
| 20260509003514 | 54 | 86 | 1.0 | 4.0 | 0.00 | 0.00 | 0.00 | 70 | 1009.9 |
| 20260509003029 | 54 | 121 | 2.0 | 4.0 | 0.00 | 0.00 | 0.00 | 69 | 1009.8 |
| 20260509002510 | 54 | 120 | 2.0 | 4.0 | 0.00 | 0.00 | 0.00 | 69 | 1009.8 |
| 20260509002009 | 54 | 136 | 2.0 | 4.0 | 0.00 | 0.00 | 0.00 | 69 | 1009.9 |
| 20260509001526 | 54 | 129 | 1.0 | 4.0 | 0.00 | 0.00 | 0.00 | 70 | 1009.9 |
| 20260509001010 | 54 | 135 | 2.0 | 4.0 | 0.00 | 0.00 | 0.00 | 71 | 1009.8 |
| 20260509000509 | 54 | 113 | 1.0 | 6.0 | 0.00 | 0.00 | 0.00 | 72 | 1009.8 |
| 20260509000027 | 54 | 117 | 1.0 | 7.0 | 0.00 | 0.00 | 0.00 | 71 | 1009.7 |
| 20260508235512 | 54 | 90 | 4.0 | 7.0 | 0.00 | 0.00 | 0.00 | 71 | 1009.7 |
| 20260508235011 | 54 | 89 | 2.0 | 4.0 | 0.00 | 0.00 | 0.00 | 71 | 1009.7 |
| 20260508234527 | 55 | 105 | 3.0 | 4.0 | 0.00 | 0.00 | 0.00 | 71 | 1009.8 |
| 20260508234008 | 55 | 105 | 1.0 | 6.0 | 0.00 | 0.00 | 0.00 | 72 | 1010.0 |
| 20260508233509 | 55 | 121 | 2.0 | 6.0 | 0.00 | 0.00 | 0.00 | 72 | 1010.0 |
| 20260508233020 | 55 | 116 | 1.0 | 3.0 | 0.00 | 0.00 | 0.00 | 71 | 1010.0 |
| 20260508232513 | 55 | 106 | 1.0 | 3.0 | 0.00 | 0.00 | 0.00 | 71 | 1010.0 |
| 20260508232007 | 55 | 80 | 2.0 | 3.0 | 0.00 | 0.00 | 0.00 | 69 | 1010.0 |
| 20260508231522 | 55 | 85 | 2.0 | 3.0 | 0.00 | 0.00 | 0.00 | 69 | 1010.0 |
| 20260508231010 | 55 | 87 | 1.0 | 2.0 | 0.00 | 0.00 | 0.00 | 69 | 1010.1 |
| 20260508230510 | 55 | 58 | 0.0 | 2.0 | 0.00 | 0.00 | 0.00 | 68 | 1010.1 |
| 20260508230026 | 55 | 88 | 0.0 | 2.0 | 0.00 | 0.00 | 0.00 | 68 | 1010.2 |
| 20260508225510 | 55 | 143 | 1.0 | 2.0 | 0.00 | 0.00 | 0.00 | 69 | 1010.2 |
| 20260508225013 | 55 | 124 | 0.0 | 1.0 | 0.00 | 0.00 | 0.00 | 70 | 1010.2 |
| 20260508224532 | 55 | 75 | 0.0 | 0.0 | 0.00 | 0.00 | 0.00 | 70 | 1010.2 |